Simultaneous Nadir Overpasses (SNOs) Predictions

Prediction of SNOs between AQUA and METOP-B Satellite Orbit:

Table of predicted SNOs for the next 14.0 days since TLE Epoch: 8/31/2018
Index Date (AQUA) Time (AQUA) Lat,Lon (AQUA) SZA (AQUA ) Date (METOP-B) Time (METOP-B) Lat,Lon (METOP-B) SZA (METOP-B ) Distance(km) Time Diff (sec)
1 09/03/2018 10:22:27 73.97, 18.39 66.49 09/03/2018 10:21:50 73.99, 18.38 66.51 2.03 37
2 09/03/2018 11:11:54 -74.07,-174.19 113.40 09/03/2018 11:12:31 -74.04,-174.16 113.43 3.16 37
3 09/06/2018 05:56:39 74.01, 84.75 67.56 09/06/2018 05:56:08 74.00, 84.82 67.55 2.26 31
4 09/06/2018 06:46:05 -74.06,-107.71 112.38 09/06/2018 06:46:49 -74.06,-107.71 112.38 0.32 44
5 09/09/2018 00:41:09 -73.26, -14.84 112.19 09/09/2018 00:40:04 -73.20, -17.95 112.15 99.92 65
6 09/09/2018 01:30:51 74.00, 151.22 68.60 09/09/2018 01:30:27 74.01, 151.25 68.61 1.36 24
7 09/09/2018 02:20:17 -74.04, -41.24 111.34 09/09/2018 02:21:08 -74.07, -41.27 111.32 3.16 51
8 09/11/2018 20:15:26 -73.52, 51.08 110.86 09/11/2018 20:14:18 -73.46, 49.05 110.85 64.47 68
9 09/11/2018 21:05:03 73.99,-142.32 69.65 09/11/2018 21:04:46 74.02,-142.32 69.68 2.42 17
10 09/11/2018 21:54:30 -74.09, 25.10 110.24 09/11/2018 21:55:27 -74.08, 25.17 110.25 2.15 57
11 09/14/2018 15:49:43 -73.83, 116.86 109.47 09/14/2018 15:48:31 -73.72, 116.06 109.54 27.52 72
12 09/14/2018 16:39:14 73.99, -75.88 70.73 09/14/2018 16:39:04 74.02, -75.89 70.76 3.28 10
13 09/14/2018 17:28:41 -74.09, 91.56 109.17 09/14/2018 17:29:45 -74.09, 91.61 109.17 1.77 64




NCC Satellite Simultaneous Nadir Overpasses (SNOs) Prediction Service
